Location: Strawberry
(45.6646°N, 111.9596°W)
Time: 22:41:56
(UTC+00:00)

ISS - Pass Details

Date: 26 August 2022
Orbit: 414 x 417 km, 51.6° (Epoch: 24 September)

Event Time Altitude Azimuth Distance (km) Brightness Sun altitude
Exits shadow 11:10:54 26° 194° (SSW) 867 -2.6 -15.3°
Maximum altitude 11:12:17 39° 143° (SE) 637 -2.9 -15.1°
Drops below altitude 10° 11:15:27 10° 72° (ENE) 1,500 0.3 -14.6°
Sets 11:17:37 0° 65° (ENE) 2,366 2.0 -14.3°
